SCP
-0 -0 -0 -0 -0 -0 -0 -0 -0 -0 -0 -0 -0 0 0 0 0 0 0 0 0 -0 0 0 0 0 0 0 0 0 0 -0 0 0 0 0 0 0 0 0 0 0 0 -0 -0
-0 -0 -0 -0 -0 -0 -0 -0 -0 -0 -0 -0 -0 0 0 0 0 0 0 0 -0 -0 0 0 0 0 0 0 0 0 0 0 0 0 0 0 0 0 0 0 0 0 0 -0 -0
-0 -0 -0 -0 -0 -0 -0 -0 -0 -0 -0 -0 -0 0 0 0 0 0 -0 -0 0 -0 0 0 0 0 0 0 0 0 0 0 0 0 0 0 0 0 0 0 0 0 -0 -0 -0
-0 -0 -0 -0 -0 -0 -0 -0 -0 -0 -0 -0 -0 0 0 -0 0 0 -0 -0 -0 0 0 0 0 0 0 0 0 0 0 0 0 0 0 0 0 0 0 -0 0 -0 -0 -0 -0
-0 -0 -0 -0 -0 -0 -0 -0 -0 -0 -0 -0 -0 0 0 0 0 -0 -0 0 -0 0 0 0 0 0 0 0 0 0 0 0 0 0 0 0 0 0 0 0 0 -0 -0 -0 -0
-0 -0 -0 -0 -0 -0 -0 -0 -0 -0 -0 -0 0 0 -0 0 0 -0 -0 0 0 0 0 0 0 0 0 0 0 0 0 0 0 0 0 0 0 0 0 0 0 0 0 0 -0
-0 -0 -0 -0 -0 -0 -0 -0 -0 -0 -0 -0 0 -0 0 0 0 -0 0 0 0 0 0 0 0 0 0 0 0 0 0 0 0 0 0 0 0 0 0 0 -0 0 0 -0 -0
-0 -0 -0 -0 -0 -0 -0 -0 -0 -0 -0 -0 -0 -0 0 0 0 0 0 0 0 0 0 0 0 0 0 0 0 0 0 -0 0 0 0 0 -0 0 -0 -0 -0 -0 -0 -0 -0
-0 -0 -0 -0 -0 -0 -0 -0 -0 0 0 0 -0 0 0 0 0 0 0 0 0 0 0 0 0 0 0 0 0 0 0 0 0 0 0 0 -0 0 -0 -0 -0 -0 -0 -0 -0
-0 -0 -0 -0 -0 -0 -0 -0 0 0 0 0 0 0 0 0 0 0 0 0 0 0 0 0 0 0 0 0 0 0 0 0 0 0 0 0 0 0 -0 -0 -0 -0 -0 -0 -0
-0 -0 -0 -0 -0 -0 -0 0 0 -0 0 0 0 0 0 0 0 0 0 0 0 0 0 0 0 0 0 0 0 0 0 0 -0 0 0 0 0 0 -0 -0 -0 -0 -0 -0 -0
-0 -0 -0 -0 -0 -0 0 0 0 0 0 -0 0 0 0 0 0 0 0 0 0 0 0 0 0 0 0 0 0 0 -0 0 0 0 0 0 0 0 0 0 -0 0 -0 -0 -0
-0 -0 -0 -0 -0 0 0 0 0 0 0 0 0 0 0 0 0 0 0 0 0 0 0 0 0 0 0 0 0 0 0 0 0 0 0 -0 -0 0 0 -0 -0 -0 -0 -0 -0
-0 -0 -0 -0 0 0 0 0 0 -0 0 0 0 0 0 0 0 0 0 0 0 0 0 0 0 0 0 0 0 -0 0 0 -0 -0 0 0 -0 -0 0 0 0 0 -0 0 0
-0 -0 -0 -0 0 0 0 0 0 -0 0 0 0 0 0 0 0 0 0 0 0 0 0 0 0 0 0 0 0 0 0 0 0 -0 0 0 0 0 0 0 0 -0 0 0 -0
-0 -0 -0 -0 0 0 0 0 0 0 0 0 0 0 0 0 0 0 0 0 0 0 0 0 0 0 0 0 0 0 0 0 -0 0 -0 0 0 0 0 0 0 0 0 0 0
0 0 0 0 0 0 0 0 -0 0 0 0 0 0 0 0 0 0 0 0 0 0 0 0 0 0 0 0 0 0 0 -0 -0 0 0 0 0 0 0 0 0 0 0 0 0
-0 0 0 0 0 0 0 0 0 0 0 0 0 0 0 0 0 0 0 0 0 0 0 0 0 0 -0 0 0 -0 0 0 0 0 0 0 0 0 0 0 0 0 0 0 0
-0 0 0 0 0 0 0 0 0 0 0 0 0 0 0 0 0 0 0 0 0 0 0 0 0 0 0 0 0 0 0 0 0 0 0 0 0 0 0 0 0 0 0 0 0
0 0 0 0 0 0 0 0 0 0 0 0 0 0 0 0 0 0 0 0 0 0 0 0 0 0 0 0 0 0 0 0 0 0 0 0 0 0 0 0 0 0 0 0 0
0 0 0 0 0 0 0 0 0 0 0 0 0 0 0 0 0 0 0 0 0 0 0 0 0 0 0 0 0 0 0 0 0 0 0 0 0 0 0 0 1 1 1 0 0
0 0 0 0 0 0 0 0 0 0 0 0 0 0 0 0 0 0 0 0 0 0 0 0 0 0 0 0 0 0 0 0 0 0 0 0 0 0 1 1 1 1 1 1 1
0 0 0 0 0 0 0 0 0 0 0 0 0 0 0 0 0 0 0 0 0 0 0 0 0 0 0 0 0 0 0 0 0 0 0 0 0 0 1 1 2 1 2 2 1
0 0 0 0 0 0 0 0 0 0 0 0 0 0 0 0 0 0 0 0 0 0 0 0 0 0 0 0 0 0 0 0 0 0 0 0 0 0 1 1 2 1 1 1 1
0 0 0 0 0 0 0 0 0 0 0 0 0 0 0 0 0 0 0 0 0 0 0 0 0 0 0 0 0 0 0 0 0 0 0 0 0 0 0 2 2 1 1 1 1
0 0 0 0 0 0 0 0 0 0 0 0 0 0 0 0 0 0 0 0 0 0 0 0 0 0 0 0 0 0 0 0 0 0 0 0 0 0 1 3 1 1 1 1 0
0 0 0 0 0 0 0 0 0 0 0 0 0 0 0 0 0 0 0 0 0 0 0 0 0 0 0 0 0 0 0 0 0 0 0 0 0 0 2 1 1 0 0 0 0
Wind_Speed_500mb
17 18 19 20 20 22 21 20 20 18 19 18 18 17 16 15 17 16 13 11 12 10 7 6 3 8 7 7 5 6 9 14 14 12 14 8 10 7 7 16 7 7 11 34 51
18 19 21 22 22 23 23 22 21 20 19 19 19 18 18 19 20 16 11 11 10 11 8 7 7 8 7 7 5 9 3 12 6 9 9 3 10 16 13 17 12 15 22 45 57
19 20 21 23 23 23 24 23 22 21 20 20 20 20 19 20 12 6 13 15 15 12 10 6 8 9 10 6 2 3 13 8 3 4 7 7 10 12 7 13 12 25 39 50 55
20 21 22 23 24 24 24 24 23 21 20 20 20 19 19 12 3 1 9 17 14 13 8 7 7 8 7 3 5 11 2 8 6 3 7 5 2 8 10 17 8 22 41 53 56
22 23 24 24 25 25 25 25 23 22 20 19 19 18 17 10 4 7 10 18 15 16 9 4 2 6 6 6 5 10 13 12 9 11 14 8 9 1 11 8 16 34 43 46 51
24 25 25 25 26 26 26 25 24 22 20 20 19 17 14 15 8 7 16 17 18 17 4 1 5 8 8 7 9 18 21 19 12 6 11 13 2 11 15 24 31 37 40 41 45
26 26 27 26 26 26 26 26 25 22 21 20 18 16 16 14 7 13 23 16 21 14 6 2 7 11 13 7 9 14 15 10 3 4 9 17 14 11 27 30 35 36 38 39 41
28 29 29 29 27 26 26 27 24 22 21 19 16 13 13 13 12 16 22 18 18 10 3 4 8 13 9 13 8 10 12 14 11 6 7 15 22 18 27 31 30 31 35 40 43
31 31 31 31 28 26 26 26 22 21 19 16 11 7 10 7 13 20 24 18 17 9 4 3 9 11 10 9 15 9 8 9 8 6 0 12 16 13 20 23 25 32 35 40 41
32 32 31 31 29 25 24 20 19 16 15 13 16 10 18 11 19 25 25 20 13 16 10 4 9 14 12 17 8 5 10 9 5 4 7 6 4 5 12 17 21 28 34 39 43
34 32 31 30 27 24 17 12 10 9 18 22 3 12 13 11 21 21 29 24 14 14 19 8 18 15 8 5 8 5 3 4 18 8 8 5 2 10 13 8 12 23 33 39 44
35 33 30 28 24 21 7 5 2 4 16 27 36 26 15 11 18 25 29 30 21 23 16 11 21 6 2 5 4 11 14 11 11 11 13 5 3 8 13 6 2 13 26 35 41
37 34 29 25 21 9 8 8 6 8 15 16 28 36 34 26 20 36 41 36 25 25 24 26 11 10 15 5 13 7 9 6 6 4 4 14 22 3 17 5 3 0 7 22 37
37 34 29 20 12 5 4 11 8 4 11 20 19 20 30 27 24 25 42 32 18 30 20 19 11 14 20 14 15 22 6 2 6 15 4 4 9 12 6 7 8 21 15 8 23
38 34 26 19 12 5 13 5 4 3 10 14 15 7 21 48 22 35 37 32 28 19 18 13 20 23 22 15 7 12 6 6 4 15 12 17 13 12 7 7 17 27 24 17 12
36 34 27 18 14 14 17 3 7 13 12 12 14 21 27 46 29 27 39 28 26 27 23 15 5 13 14 16 14 10 13 11 10 16 19 17 9 11 7 11 18 26 27 25 22
34 33 28 17 7 17 20 10 12 15 7 13 11 21 34 32 38 29 39 38 26 27 29 29 31 25 22 23 23 20 22 16 15 15 3 14 13 10 16 8 13 19 26 27 26
33 30 23 19 25 22 18 15 17 4 9 6 4 15 32 31 40 33 37 40 45 37 23 28 28 39 33 33 30 25 27 19 14 16 9 11 11 9 23 8 7 12 21 27 31
31 24 17 18 28 30 28 23 10 4 5 7 8 21 27 28 22 36 35 38 39 35 35 21 26 10 9 18 25 22 23 22 27 13 21 26 8 26 15 10 6 10 18 25 31
27 10 11 16 28 30 22 29 13 6 8 7 13 11 28 34 31 38 35 27 30 34 43 15 19 20 17 13 12 22 6 18 22 34 35 22 9 8 26 10 6 12 19 25 33
17 9 10 20 33 25 21 31 23 13 9 7 5 8 11 13 36 32 39 22 17 28 41 36 21 12 13 26 26 18 22 20 24 18 22 24 17 15 16 8 8 12 18 24 28
4 8 7 37 21 20 25 14 7 14 14 12 10 13 11 7 22 33 36 19 13 12 27 38 20 28 32 22 9 22 23 33 23 29 21 26 23 13 18 14 14 16 17 17 18
10 5 15 14 14 18 11 19 18 16 16 10 12 9 3 6 10 18 21 10 19 26 18 18 20 22 25 17 16 22 33 32 33 28 32 22 19 16 21 20 15 16 16 11 7
7 7 10 16 10 16 19 23 19 15 20 18 17 13 18 19 13 6 18 15 13 22 5 18 29 25 23 3 7 20 25 32 40 28 28 30 28 21 23 25 22 18 14 9 8
5 3 7 10 21 14 10 2 22 14 18 12 13 28 25 23 22 20 16 18 17 19 13 24 24 15 25 6 11 15 17 20 32 38 35 28 24 17 27 27 27 21 16 12 9
10 9 8 11 8 17 15 18 19 12 11 14 22 15 16 25 22 14 21 19 27 21 22 18 15 12 21 13 15 20 20 23 26 30 33 29 30 11 22 30 28 22 20 16 13
13 11 8 4 8 11 22 25 16 6 12 15 16 13 22 20 21 28 24 15 12 18 25 21 15 14 25 10 15 26 30 32 30 29 28 33 27 19 25 29 27 25 22 17 12
Wind_Direction_500mb
328 326 325 321 323 321 320 322 326 326 325 327 331 335 334 327 313 292 276 233 211 216 202 193 259 231 246 274 284 281 239 74 50 22 56 120 183 157 148 142 144 107 104 146 156
324 323 319 319 319 316 316 318 319 320 321 324 327 331 335 328 314 285 229 203 197 196 170 206 210 211 242 255 251 264 292 51 14 19 358 153 228 155 174 159 157 127 116 149 155
321 319 318 318 316 313 313 313 313 315 317 320 323 330 336 332 312 115 198 187 191 195 189 230 262 284 269 242 17 317 16 46 86 28 346 38 199 196 200 179 161 167 152 156 164
320 320 317 317 312 310 308 307 308 310 312 314 319 328 334 330 344 275 190 175 181 174 194 249 246 257 268 301 323 267 285 325 7 320 287 316 20 190 206 66 98 159 164 164 173
324 321 319 315 312 309 306 305 304 304 306 308 313 322 335 284 267 261 187 176 172 155 146 151 230 277 259 326 261 249 337 311 274 267 266 267 228 226 181 150 138 148 163 172 177
325 320 317 314 309 308 303 299 299 299 300 300 305 313 320 267 265 208 168 177 175 166 176 111 350 328 284 285 291 322 299 280 277 243 238 242 199 192 140 149 146 153 167 174 180
324 321 318 313 310 308 302 296 295 294 292 291 296 304 287 275 217 169 166 174 177 175 171 25 4 320 325 266 307 287 279 183 156 16 246 223 173 186 144 156 157 163 168 177 184
322 320 317 314 313 309 301 295 292 290 284 281 283 293 266 251 195 171 173 169 173 172 157 15 343 308 271 305 237 238 248 172 86 344 89 240 107 117 161 165 169 171 174 182 189
320 318 316 315 313 309 301 296 294 289 275 267 276 250 250 221 189 178 172 174 175 180 188 333 317 271 247 246 196 214 127 101 162 40 284 269 77 102 175 188 179 182 186 189 192
317 316 314 313 312 309 301 293 290 284 258 255 242 253 223 181 172 173 176 166 182 182 188 229 247 245 214 226 168 105 166 102 83 123 223 241 314 35 178 218 209 199 194 198 200
315 315 314 312 312 312 300 292 272 235 221 231 254 235 150 157 160 177 184 182 187 197 209 228 248 216 93 32 338 283 207 112 74 51 232 108 344 5 93 212 221 208 205 207 209
315 316 314 311 311 311 273 251 245 286 290 247 238 237 211 165 177 178 174 188 202 214 141 221 232 190 255 303 238 187 191 115 107 66 270 54 284 9 58 84 336 205 212 214 210
316 317 314 312 310 288 237 201 255 320 260 239 220 226 216 208 214 183 181 195 204 222 214 246 93 145 266 216 211 139 44 77 48 133 160 315 224 185 125 138 83 219 239 220 220
316 316 315 317 317 280 219 202 308 203 266 172 200 218 195 200 222 197 193 193 178 222 213 241 214 198 248 251 264 150 24 320 206 249 228 305 318 189 43 135 51 61 32 249 231
314 313 313 306 270 261 215 233 138 194 265 114 149 187 191 191 160 190 192 204 225 191 203 203 196 196 222 266 268 72 348 5 304 256 284 179 271 84 126 69 30 27 13 2 310
312 309 306 295 261 218 193 226 175 229 236 151 152 181 176 202 199 147 182 212 230 224 226 252 150 197 199 255 249 293 243 222 224 266 260 100 303 162 92 17 353 357 7 2 351
310 302 293 267 214 195 186 178 224 244 122 160 185 187 201 182 191 187 186 197 202 202 215 219 223 223 219 222 243 232 236 240 226 216 283 98 277 270 124 53 5 352 359 5 11
313 298 278 247 209 183 177 212 239 325 249 110 226 200 203 190 200 197 194 203 214 215 242 210 213 212 203 214 243 213 248 265 268 260 249 161 251 103 109 101 27 11 13 21 31
320 303 273 224 199 185 199 214 226 254 352 298 204 209 195 193 222 201 211 215 210 216 228 209 237 142 220 232 225 214 238 271 282 243 269 270 168 165 164 122 106 61 44 39 48
326 299 222 206 188 178 215 235 227 271 313 261 261 221 202 197 201 198 200 219 227 216 233 220 257 186 152 206 218 266 299 223 227 263 264 260 214 248 175 149 133 88 73 67 70
327 252 267 186 167 196 219 223 238 233 257 281 277 256 262 202 207 201 209 193 204 211 217 231 231 213 185 209 223 189 226 231 282 279 272 263 247 108 144 156 127 89 82 82 80
345 233 185 151 192 206 227 210 219 221 204 256 283 280 278 239 216 228 215 221 177 191 210 218 228 238 228 230 263 286 247 228 231 232 237 279 277 138 135 148 152 119 110 98 76
319 278 182 182 219 210 184 223 238 220 224 225 247 243 286 278 234 226 218 148 187 191 193 172 221 236 229 199 204 232 233 244 253 258 266 260 267 152 143 149 150 140 139 130 69
308 216 170 212 261 283 209 221 213 210 249 248 264 253 253 252 214 208 199 168 179 214 269 222 244 231 248 336 4 198 234 231 239 239 246 244 257 173 179 166 160 158 150 135 92
307 63 330 194 213 231 235 282 219 216 221 222 227 240 243 243 227 220 221 160 175 170 200 220 242 233 258 307 281 278 268 222 243 253 267 283 282 232 185 180 176 165 155 153 120
334 340 326 285 258 233 197 212 237 218 233 230 238 260 261 240 250 241 212 214 188 181 196 205 236 241 253 217 246 259 256 259 243 254 270 273 274 318 163 160 173 161 151 140 112
349 335 305 163 223 234 233 238 230 238 225 265 279 291 245 243 275 277 278 292 289 222 210 225 229 226 255 267 288 264 255 261 253 259 265 262 278 158 167 180 169 154 147 131 104
Wind_Speed_850mb
17 18 19 20 20 22 21 20 20 18 19 18 18 17 16 15 17 16 13 11 12 10 7 6 3 8 7 7 5 6 9 14 14 12 14 8 10 7 7 16 7 7 11 34 51
18 19 21 22 22 23 23 22 21 20 19 19 19 18 18 19 20 16 11 11 10 11 8 7 7 8 7 7 5 9 3 12 6 9 9 3 10 16 13 17 12 15 22 45 57
19 20 21 23 23 23 24 23 22 21 20 20 20 20 19 20 12 6 13 15 15 12 10 6 8 9 10 6 2 3 13 8 3 4 7 7 10 12 7 13 12 25 39 50 55
20 21 22 23 24 24 24 24 23 21 20 20 20 19 19 12 3 1 9 17 14 13 8 7 7 8 7 3 5 11 2 8 6 3 7 5 2 8 10 17 8 22 41 53 56
22 23 24 24 25 25 25 25 23 22 20 19 19 18 17 10 4 7 10 18 15 16 9 4 2 6 6 6 5 10 13 12 9 11 14 8 9 1 11 8 16 34 43 46 51
24 25 25 25 26 26 26 25 24 22 20 20 19 17 14 15 8 7 16 17 18 17 4 1 5 8 8 7 9 18 21 19 12 6 11 13 2 11 15 24 31 37 40 41 45
26 26 27 26 26 26 26 26 25 22 21 20 18 16 16 14 7 13 23 16 21 14 6 2 7 11 13 7 9 14 15 10 3 4 9 17 14 11 27 30 35 36 38 39 41
28 29 29 29 27 26 26 27 24 22 21 19 16 13 13 13 12 16 22 18 18 10 3 4 8 13 9 13 8 10 12 14 11 6 7 15 22 18 27 31 30 31 35 40 43
31 31 31 31 28 26 26 26 22 21 19 16 11 7 10 7 13 20 24 18 17 9 4 3 9 11 10 9 15 9 8 9 8 6 0 12 16 13 20 23 25 32 35 40 41
32 32 31 31 29 25 24 20 19 16 15 13 16 10 18 11 19 25 25 20 13 16 10 4 9 14 12 17 8 5 10 9 5 4 7 6 4 5 12 17 21 28 34 39 43
34 32 31 30 27 24 17 12 10 9 18 22 3 12 13 11 21 21 29 24 14 14 19 8 18 15 8 5 8 5 3 4 18 8 8 5 2 10 13 8 12 23 33 39 44
35 33 30 28 24 21 7 5 2 4 16 27 36 26 15 11 18 25 29 30 21 23 16 11 21 6 2 5 4 11 14 11 11 11 13 5 3 8 13 6 2 13 26 35 41
37 34 29 25 21 9 8 8 6 8 15 16 28 36 34 26 20 36 41 36 25 25 24 26 11 10 15 5 13 7 9 6 6 4 4 14 22 3 17 5 3 0 7 22 37
37 34 29 20 12 5 4 11 8 4 11 20 19 20 30 27 24 25 42 32 18 30 20 19 11 14 20 14 15 22 6 2 6 15 4 4 9 12 6 7 8 21 15 8 23
38 34 26 19 12 5 13 5 4 3 10 14 15 7 21 48 22 35 37 32 28 19 18 13 20 23 22 15 7 12 6 6 4 15 12 17 13 12 7 7 17 27 24 17 12
36 34 27 18 14 14 17 3 7 13 12 12 14 21 27 46 29 27 39 28 26 27 23 15 5 13 14 16 14 10 13 11 10 16 19 17 9 11 7 11 18 26 27 25 22
34 33 28 17 7 17 20 10 12 15 7 13 11 21 34 32 38 29 39 38 26 27 29 29 31 25 22 23 23 20 22 16 15 15 3 14 13 10 16 8 13 19 26 27 26
33 30 23 19 25 22 18 15 17 4 9 6 4 15 32 31 40 33 37 40 45 37 23 28 28 39 33 33 30 25 27 19 14 16 9 11 11 9 23 8 7 12 21 27 31
31 24 17 18 28 30 28 23 10 4 5 7 8 21 27 28 22 36 35 38 39 35 35 21 26 10 9 18 25 22 23 22 27 13 21 26 8 26 15 10 6 10 18 25 31
27 10 11 16 28 30 22 29 13 6 8 7 13 11 28 34 31 38 35 27 30 34 43 15 19 20 17 13 12 22 6 18 22 34 35 22 9 8 26 10 6 12 19 25 33
17 9 10 20 33 25 21 31 23 13 9 7 5 8 11 13 36 32 39 22 17 28 41 36 21 12 13 26 26 18 22 20 24 18 22 24 17 15 16 8 8 12 18 24 28
4 8 7 37 21 20 25 14 7 14 14 12 10 13 11 7 22 33 36 19 13 12 27 38 20 28 32 22 9 22 23 33 23 29 21 26 23 13 18 14 14 16 17 17 18
10 5 15 14 14 18 11 19 18 16 16 10 12 9 3 6 10 18 21 10 19 26 18 18 20 22 25 17 16 22 33 32 33 28 32 22 19 16 21 20 15 16 16 11 7
7 7 10 16 10 16 19 23 19 15 20 18 17 13 18 19 13 6 18 15 13 22 5 18 29 25 23 3 7 20 25 32 40 28 28 30 28 21 23 25 22 18 14 9 8
5 3 7 10 21 14 10 2 22 14 18 12 13 28 25 23 22 20 16 18 17 19 13 24 24 15 25 6 11 15 17 20 32 38 35 28 24 17 27 27 27 21 16 12 9
10 9 8 11 8 17 15 18 19 12 11 14 22 15 16 25 22 14 21 19 27 21 22 18 15 12 21 13 15 20 20 23 26 30 33 29 30 11 22 30 28 22 20 16 13
13 11 8 4 8 11 22 25 16 6 12 15 16 13 22 20 21 28 24 15 12 18 25 21 15 14 25 10 15 26 30 32 30 29 28 33 27 19 25 29 27 25 22 17 12
Wind_Direction_850mb
328 326 325 321 323 321 320 322 326 326 325 327 331 335 334 327 313 292 276 233 211 216 202 193 259 231 246 274 284 281 239 74 50 22 56 120 183 157 148 142 144 107 104 146 156
324 323 319 319 319 316 316 318 319 320 321 324 327 331 335 328 314 285 229 203 197 196 170 206 210 211 242 255 251 264 292 51 14 19 358 153 228 155 174 159 157 127 116 149 155
321 319 318 318 316 313 313 313 313 315 317 320 323 330 336 332 312 115 198 187 191 195 189 230 262 284 269 242 17 317 16 46 86 28 346 38 199 196 200 179 161 167 152 156 164
320 320 317 317 312 310 308 307 308 310 312 314 319 328 334 330 344 275 190 175 181 174 194 249 246 257 268 301 323 267 285 325 7 320 287 316 20 190 206 66 98 159 164 164 173
324 321 319 315 312 309 306 305 304 304 306 308 313 322 335 284 267 261 187 176 172 155 146 151 230 277 259 326 261 249 337 311 274 267 266 267 228 226 181 150 138 148 163 172 177
325 320 317 314 309 308 303 299 299 299 300 300 305 313 320 267 265 208 168 177 175 166 176 111 350 328 284 285 291 322 299 280 277 243 238 242 199 192 140 149 146 153 167 174 180
324 321 318 313 310 308 302 296 295 294 292 291 296 304 287 275 217 169 166 174 177 175 171 25 4 320 325 266 307 287 279 183 156 16 246 223 173 186 144 156 157 163 168 177 184
322 320 317 314 313 309 301 295 292 290 284 281 283 293 266 251 195 171 173 169 173 172 157 15 343 308 271 305 237 238 248 172 86 344 89 240 107 117 161 165 169 171 174 182 189
320 318 316 315 313 309 301 296 294 289 275 267 276 250 250 221 189 178 172 174 175 180 188 333 317 271 247 246 196 214 127 101 162 40 284 269 77 102 175 188 179 182 186 189 192
317 316 314 313 312 309 301 293 290 284 258 255 242 253 223 181 172 173 176 166 182 182 188 229 247 245 214 226 168 105 166 102 83 123 223 241 314 35 178 218 209 199 194 198 200
315 315 314 312 312 312 300 292 272 235 221 231 254 235 150 157 160 177 184 182 187 197 209 228 248 216 93 32 338 283 207 112 74 51 232 108 344 5 93 212 221 208 205 207 209
315 316 314 311 311 311 273 251 245 286 290 247 238 237 211 165 177 178 174 188 202 214 141 221 232 190 255 303 238 187 191 115 107 66 270 54 284 9 58 84 336 205 212 214 210
316 317 314 312 310 288 237 201 255 320 260 239 220 226 216 208 214 183 181 195 204 222 214 246 93 145 266 216 211 139 44 77 48 133 160 315 224 185 125 138 83 219 239 220 220
316 316 315 317 317 280 219 202 308 203 266 172 200 218 195 200 222 197 193 193 178 222 213 241 214 198 248 251 264 150 24 320 206 249 228 305 318 189 43 135 51 61 32 249 231
314 313 313 306 270 261 215 233 138 194 265 114 149 187 191 191 160 190 192 204 225 191 203 203 196 196 222 266 268 72 348 5 304 256 284 179 271 84 126 69 30 27 13 2 310
312 309 306 295 261 218 193 226 175 229 236 151 152 181 176 202 199 147 182 212 230 224 226 252 150 197 199 255 249 293 243 222 224 266 260 100 303 162 92 17 353 357 7 2 351
310 302 293 267 214 195 186 178 224 244 122 160 185 187 201 182 191 187 186 197 202 202 215 219 223 223 219 222 243 232 236 240 226 216 283 98 277 270 124 53 5 352 359 5 11
313 298 278 247 209 183 177 212 239 325 249 110 226 200 203 190 200 197 194 203 214 215 242 210 213 212 203 214 243 213 248 265 268 260 249 161 251 103 109 101 27 11 13 21 31
320 303 273 224 199 185 199 214 226 254 352 298 204 209 195 193 222 201 211 215 210 216 228 209 237 142 220 232 225 214 238 271 282 243 269 270 168 165 164 122 106 61 44 39 48
326 299 222 206 188 178 215 235 227 271 313 261 261 221 202 197 201 198 200 219 227 216 233 220 257 186 152 206 218 266 299 223 227 263 264 260 214 248 175 149 133 88 73 67 70
327 252 267 186 167 196 219 223 238 233 257 281 277 256 262 202 207 201 209 193 204 211 217 231 231 213 185 209 223 189 226 231 282 279 272 263 247 108 144 156 127 89 82 82 80
345 233 185 151 192 206 227 210 219 221 204 256 283 280 278 239 216 228 215 221 177 191 210 218 228 238 228 230 263 286 247 228 231 232 237 279 277 138 135 148 152 119 110 98 76
319 278 182 182 219 210 184 223 238 220 224 225 247 243 286 278 234 226 218 148 187 191 193 172 221 236 229 199 204 232 233 244 253 258 266 260 267 152 143 149 150 140 139 130 69
308 216 170 212 261 283 209 221 213 210 249 248 264 253 253 252 214 208 199 168 179 214 269 222 244 231 248 336 4 198 234 231 239 239 246 244 257 173 179 166 160 158 150 135 92
307 63 330 194 213 231 235 282 219 216 221 222 227 240 243 243 227 220 221 160 175 170 200 220 242 233 258 307 281 278 268 222 243 253 267 283 282 232 185 180 176 165 155 153 120
334 340 326 285 258 233 197 212 237 218 233 230 238 260 261 240 250 241 212 214 188 181 196 205 236 241 253 217 246 259 256 259 243 254 270 273 274 318 163 160 173 161 151 140 112
349 335 305 163 223 234 233 238 230 238 225 265 279 291 245 243 275 277 278 292 289 222 210 225 229 226 255 267 288 264 255 261 253 259 265 262 278 158 167 180 169 154 147 131 104